Time,TemperatureF,DewpointF,PressureIn,WindDirection,WindDirectionDegrees,WindSpeedMPH,WindSpeedGustMPH,Humidity,HourlyPrecipIn,Conditions,Clouds,dailyrainin,SoftwareType,DateUTC
2013-04-24 00:01:00,55.7,44.1,30.09,WNW,290,0.0,3.0,65,0.00,,---,0.00,VWS V14.01,2013-04-24 04:01:00,
2013-04-24 00:06:00,55.8,44.2,30.09,SE,124,1.0,3.0,65,0.00,,---,0.00,VWS V14.01,2013-04-24 04:06:00,
2013-04-24 00:11:00,55.6,44.0,30.09,North,352,0.0,1.0,65,0.00,,---,0.00,VWS V14.01,2013-04-24 04:11:00,
2013-04-24 00:16:00,55.3,44.2,30.09,NE,40,0.0,2.0,66,0.00,,---,0.00,VWS V14.01,2013-04-24 04:16:00,
2013-04-24 00:21:00,54.9,44.2,30.09,SE,143,1.0,2.0,67,0.00,,---,0.00,VWS V14.01,2013-04-24 04:21:00,
2013-04-24 00:26:00,54.9,44.2,30.09,ESE,108,1.0,2.0,67,0.00,,---,0.00,VWS V14.01,2013-04-24 04:26:00,
2013-04-24 00:31:00,54.7,44.0,30.09,WNW,297,1.0,1.0,67,0.00,,---,0.00,VWS V14.01,2013-04-24 04:31:00,
2013-04-24 00:36:00,55.0,44.3,30.09,WNW,292,1.0,1.0,67,0.00,,---,0.00,VWS V14.01,2013-04-24 04:36:00,
2013-04-24 00:41:00,55.2,44.5,30.09,ENE,71,1.0,3.0,67,0.00,,---,0.00,VWS V14.01,2013-04-24 04:41:00,
2013-04-24 00:46:00,55.4,44.2,30.09,NW,326,0.0,3.0,66,0.00,,---,0.00,VWS V14.01,2013-04-24 04:46:00,
2013-04-24 00:51:00,55.5,43.9,30.09,West,277,0.0,3.0,65,0.00,,---,0.00,VWS V14.01,2013-04-24 04:51:00,
2013-04-24 00:56:00,55.8,44.2,30.09,NE,43,0.0,1.0,65,0.00,,---,0.00,VWS V14.01,2013-04-24 04:56:00,
2013-04-24 01:01:00,55.6,44.0,30.09,NE,50,1.0,1.0,65,0.00,,---,0.00,VWS V14.01,2013-04-24 05:01:00,
2013-04-24 01:06:00,55.3,43.8,30.09,NNW,348,0.0,0.0,65,0.00,,---,0.00,VWS V14.01,2013-04-24 05:06:00,
2013-04-24 01:11:00,55.3,44.2,30.08,SE,128,1.0,1.0,66,0.00,,---,0.00,VWS V14.01,2013-04-24 05:11:00,
2013-04-24 01:16:00,55.2,44.0,30.08,ESE,110,0.0,0.0,66,0.00,,---,0.00,VWS V14.01,2013-04-24 05:16:00,
2013-04-24 01:21:00,55.2,44.5,30.08,NE,47,2.0,5.0,67,0.00,,---,0.00,VWS V14.01,2013-04-24 05:21:00,
2013-04-24 01:26:00,55.5,44.3,30.08,SSE,154,0.0,2.0,66,0.00,,---,0.00,VWS V14.01,2013-04-24 05:26:00,
2013-04-24 01:31:00,55.5,44.7,30.08,ENE,61,0.0,1.0,67,0.00,,---,0.00,VWS V14.01,2013-04-24 05:31:00,
2013-04-24 01:36:00,55.2,44.5,30.08,ESE,120,1.0,2.0,67,0.00,,---,0.00,VWS V14.01,2013-04-24 05:36:00,
2013-04-24 01:41:00,55.1,44.3,30.08,NNW,336,2.0,3.0,67,0.00,,---,0.00,VWS V14.01,2013-04-24 05:41:00,
2013-04-24 01:46:00,55.1,44.7,30.08,NNE,15,1.0,1.0,68,0.00,,---,0.00,VWS V14.01,2013-04-24 05:46:00,
2013-04-24 01:51:00,55.1,44.7,30.08,North,352,0.0,2.0,68,0.00,,---,0.00,VWS V14.01,2013-04-24 05:51:00,
2013-04-24 01:56:00,54.9,44.9,30.07,NNE,32,1.0,1.0,69,0.00,,---,0.00,VWS V14.01,2013-04-24 05:56:00,
2013-04-24 02:01:00,54.8,44.8,30.07,North,356,0.0,1.0,69,0.00,,---,0.00,VWS V14.01,2013-04-24 06:01:00,
2013-04-24 02:06:00,54.6,44.7,30.07,North,4,0.0,1.0,69,0.00,,---,0.00,VWS V14.01,2013-04-24 06:06:00,
2013-04-24 02:11:00,54.6,44.7,30.07,NW,318,0.0,2.0,69,0.00,,---,0.00,VWS V14.01,2013-04-24 06:11:00,
2013-04-24 02:16:00,54.4,44.5,30.07,ENE,68,0.0,0.0,69,0.00,,---,0.00,VWS V14.01,2013-04-24 06:16:00,
2013-04-24 02:21:00,54.5,44.9,30.07,East,86,0.0,2.0,70,0.00,,---,0.00,VWS V14.01,2013-04-24 06:21:00,
2013-04-24 02:26:00,54.6,45.0,30.07,NNE,32,1.0,2.0,70,0.00,,---,0.00,VWS V14.01,2013-04-24 06:26:00,
2013-04-24 02:31:00,54.4,44.8,30.07,NE,39,2.0,3.0,70,0.00,,---,0.00,VWS V14.01,2013-04-24 06:31:00,
2013-04-24 02:36:00,54.3,44.7,30.07,ESE,105,1.0,2.0,70,0.00,,---,0.00,VWS V14.01,2013-04-24 06:36:00,
2013-04-24 02:41:00,54.2,44.6,30.07,East,96,0.0,0.0,70,0.00,,---,0.00,VWS V14.01,2013-04-24 06:41:00,
2013-04-24 02:46:00,54.0,44.5,30.07,East,96,0.0,0.0,70,0.00,,---,0.00,VWS V14.01,2013-04-24 06:46:00,
2013-04-24 02:51:00,53.4,44.6,30.07,East,96,1.0,1.0,72,0.00,,---,0.00,VWS V14.01,2013-04-24 06:51:00,
2013-04-24 02:56:00,53.1,44.7,30.07,East,95,1.0,1.0,73,0.00,,---,0.00,VWS V14.01,2013-04-24 06:56:00,
2013-04-24 03:01:00,52.8,44.4,30.07,East,96,1.0,1.0,73,0.00,,---,0.00,VWS V14.01,2013-04-24 07:01:00,
2013-04-24 03:06:00,52.4,44.4,30.06,East,95,0.0,0.0,74,0.00,,---,0.00,VWS V14.01,2013-04-24 07:06:00,
2013-04-24 03:11:00,52.3,44.6,30.06,East,94,1.0,1.0,75,0.00,,---,0.00,VWS V14.01,2013-04-24 07:11:00,
2013-04-24 03:16:00,52.2,44.5,30.07,North,6,0.0,0.0,75,0.00,,---,0.00,VWS V14.01,2013-04-24 07:16:00,
2013-04-24 03:21:00,52.3,44.3,30.07,NNE,13,0.0,0.0,74,0.00,,---,0.00,VWS V14.01,2013-04-24 07:21:00,
2013-04-24 03:26:00,52.4,44.4,30.07,ENE,58,1.0,1.0,74,0.00,,---,0.00,VWS V14.01,2013-04-24 07:26:00,
2013-04-24 03:31:00,52.5,44.5,30.07,NNE,18,1.0,1.0,74,0.00,,---,0.00,VWS V14.01,2013-04-24 07:31:00,
2013-04-24 03:36:00,52.2,44.5,30.07,NNE,23,0.0,0.0,75,0.00,,---,0.00,VWS V14.01,2013-04-24 07:36:00,
2013-04-24 03:41:00,52.0,44.7,30.06,NNE,25,1.0,1.0,76,0.00,,---,0.00,VWS V14.01,2013-04-24 07:41:00,
2013-04-24 03:46:00,51.9,44.6,30.06,NNE,25,1.0,1.0,76,0.00,,---,0.00,VWS V14.01,2013-04-24 07:46:00,
2013-04-24 03:51:00,51.6,44.3,30.06,NNE,23,0.0,0.0,76,0.00,,---,0.00,VWS V14.01,2013-04-24 07:51:00,
2013-04-24 03:56:00,51.5,44.2,30.06,NNE,23,0.0,1.0,76,0.00,,---,0.00,VWS V14.01,2013-04-24 07:56:00,
2013-04-24 04:01:00,51.5,44.5,30.06,NNE,23,0.0,0.0,77,0.00,,---,0.00,VWS V14.01,2013-04-24 08:01:00,
2013-04-24 04:06:00,51.5,44.5,30.06,NNE,25,1.0,2.0,77,0.00,,---,0.00,VWS V14.01,2013-04-24 08:06:00,
2013-04-24 04:11:00,51.3,44.3,30.06,NNE,25,0.0,1.0,77,0.00,,---,0.00,VWS V14.01,2013-04-24 08:11:00,
2013-04-24 04:16:00,51.2,44.6,30.06,NNE,25,0.0,0.0,78,0.00,,---,0.00,VWS V14.01,2013-04-24 08:16:00,
2013-04-24 04:21:00,51.0,44.4,30.06,NNE,25,1.0,1.0,78,0.00,,---,0.00,VWS V14.01,2013-04-24 08:21:00,
2013-04-24 04:26:00,50.9,44.3,30.05,NNE,25,0.0,0.0,78,0.00,,---,0.00,VWS V14.01,2013-04-24 08:26:00,
2013-04-24 04:31:00,50.8,44.5,30.05,NNE,25,0.0,0.0,79,0.00,,---,0.00,VWS V14.01,2013-04-24 08:31:00,
2013-04-24 04:36:00,50.7,44.4,30.05,NNE,25,0.0,0.0,79,0.00,,---,0.00,VWS V14.01,2013-04-24 08:36:00,
2013-04-24 04:41:00,50.8,44.5,30.05,NNE,25,0.0,0.0,79,0.00,,---,0.00,VWS V14.01,2013-04-24 08:41:00,
2013-04-24 04:46:00,50.6,44.3,30.05,NNE,25,0.0,0.0,79,0.00,,---,0.00,VWS V14.01,2013-04-24 08:46:00,
2013-04-24 04:51:00,50.5,44.2,30.05,NNE,25,0.0,0.0,79,0.00,,---,0.00,VWS V14.01,2013-04-24 08:51:00,
2013-04-24 04:56:00,50.4,44.5,30.05,NNE,25,0.0,0.0,80,0.00,,---,0.00,VWS V14.01,2013-04-24 08:56:00,
2013-04-24 05:01:00,50.4,44.5,30.05,NNE,25,0.0,0.0,80,0.00,,---,0.00,VWS V14.01,2013-04-24 09:01:00,
2013-04-24 05:06:00,50.4,44.1,30.05,NNE,25,0.0,0.0,79,0.00,,---,0.00,VWS V14.01,2013-04-24 09:06:00,
2013-04-24 05:11:00,50.4,44.5,30.05,NNE,25,0.0,0.0,80,0.00,,---,0.00,VWS V14.01,2013-04-24 09:11:00,
2013-04-24 05:16:00,50.3,44.4,30.05,NNE,25,0.0,0.0,80,0.00,,---,0.00,VWS V14.01,2013-04-24 09:16:00,
2013-04-24 05:21:00,50.3,44.4,30.05,NNE,25,0.0,0.0,80,0.00,,---,0.00,VWS V14.01,2013-04-24 09:21:00,
2013-04-24 05:26:00,50.3,44.4,30.05,NNE,25,0.0,0.0,80,0.00,,---,0.00,VWS V14.01,2013-04-24 09:26:00,
2013-04-24 05:31:00,50.3,44.4,30.05,NNE,25,0.0,0.0,80,0.00,,---,0.00,VWS V14.01,2013-04-24 09:31:00,
2013-04-24 05:36:00,50.4,44.5,30.05,NNE,25,0.0,0.0,80,0.00,,---,0.00,VWS V14.01,2013-04-24 09:36:00,
2013-04-24 05:41:00,50.5,44.6,30.04,NNE,25,0.0,0.0,80,0.00,,---,0.00,VWS V14.01,2013-04-24 09:41:00,
2013-04-24 05:46:00,50.4,44.1,30.04,NNE,25,0.0,1.0,79,0.00,,---,0.00,VWS V14.01,2013-04-24 09:46:00,
2013-04-24 05:51:00,50.5,44.2,30.04,NNE,25,0.0,1.0,79,0.00,,---,0.00,VWS V14.01,2013-04-24 09:51:00,
2013-04-24 05:56:00,50.2,44.3,30.04,NNE,25,0.0,1.0,80,0.00,,---,0.00,VWS V14.01,2013-04-24 09:56:00,
2013-04-24 06:01:00,50.1,44.2,30.05,NNE,25,0.0,0.0,80,0.00,,---,0.00,VWS V14.01,2013-04-24 10:01:00,
2013-04-24 06:06:00,50.3,43.7,30.04,NNE,25,0.0,0.0,78,0.00,,---,0.00,VWS V14.01,2013-04-24 10:06:00,
2013-04-24 06:11:00,50.3,44.0,30.04,NNE,25,0.0,1.0,79,0.00,,---,0.00,VWS V14.01,2013-04-24 10:11:00,
2013-04-24 06:16:00,50.4,43.8,30.04,NNE,25,0.0,0.0,78,0.00,,---,0.00,VWS V14.01,2013-04-24 10:16:00,
2013-04-24 06:21:00,50.4,44.1,30.04,NNE,25,0.0,0.0,79,0.00,,---,0.00,VWS V14.01,2013-04-24 10:21:00,
2013-04-24 06:26:00,50.4,44.1,30.04,NNE,25,0.0,0.0,79,0.00,,---,0.00,VWS V14.01,2013-04-24 10:26:00,
2013-04-24 06:31:00,50.5,44.2,30.04,NNE,25,0.0,0.0,79,0.00,,---,0.00,VWS V14.01,2013-04-24 10:31:00,
2013-04-24 06:36:00,50.5,44.2,30.05,NNE,25,0.0,1.0,79,0.00,,---,0.00,VWS V14.01,2013-04-24 10:36:00,
2013-04-24 06:41:00,50.5,44.2,30.05,NNE,25,0.0,0.0,79,0.00,,---,0.00,VWS V14.01,2013-04-24 10:41:00,
2013-04-24 06:46:00,50.5,44.2,30.05,NNE,25,0.0,0.0,79,0.00,,---,0.00,VWS V14.01,2013-04-24 10:46:00,
2013-04-24 06:51:00,50.4,44.1,30.05,NNE,25,0.0,0.0,79,0.00,,---,0.00,VWS V14.01,2013-04-24 10:51:00,
2013-04-24 06:56:00,50.6,44.0,30.05,NNE,25,0.0,0.0,78,0.00,,---,0.00,VWS V14.01,2013-04-24 10:56:00,
2013-04-24 07:01:00,50.9,44.3,30.05,NNE,25,0.0,0.0,78,0.00,,---,0.00,VWS V14.01,2013-04-24 11:01:00,
2013-04-24 07:06:00,50.9,44.6,30.05,NNE,25,0.0,0.0,79,0.00,,---,0.00,VWS V14.01,2013-04-24 11:06:00,
2013-04-24 07:11:00,50.8,44.5,30.05,NNE,25,0.0,0.0,79,0.00,,---,0.00,VWS V14.01,2013-04-24 11:11:00,
2013-04-24 07:16:00,50.7,44.4,30.06,NNE,25,0.0,1.0,79,0.00,,---,0.00,VWS V14.01,2013-04-24 11:16:00,
2013-04-24 07:21:00,50.9,44.6,30.06,NNE,25,0.0,0.0,79,0.00,,---,0.00,VWS V14.01,2013-04-24 11:21:00,
2013-04-24 07:26:00,50.8,44.5,30.06,NNE,32,1.0,1.0,79,0.00,,---,0.00,VWS V14.01,2013-04-24 11:26:00,
2013-04-24 07:31:00,51.1,45.2,30.05,NE,39,0.0,0.0,80,0.00,,---,0.00,VWS V14.01,2013-04-24 11:31:00,
2013-04-24 07:36:00,51.2,44.9,30.05,NE,40,1.0,1.0,79,0.00,,---,0.00,VWS V14.01,2013-04-24 11:36:00,
2013-04-24 07:41:00,51.7,45.1,30.05,NE,39,0.0,0.0,78,0.00,,---,0.00,VWS V14.01,2013-04-24 11:41:00,
2013-04-24 07:46:00,51.7,45.1,30.04,NE,39,1.0,1.0,78,0.00,,---,0.00,VWS V14.01,2013-04-24 11:46:00,
2013-04-24 07:51:00,51.7,45.1,30.04,NE,40,0.0,0.0,78,0.00,,---,0.00,VWS V14.01,2013-04-24 11:51:00,
2013-04-24 07:56:00,51.6,45.3,30.04,NE,40,1.0,1.0,79,0.00,,---,0.00,VWS V14.01,2013-04-24 11:56:00,
2013-04-24 08:01:00,51.8,45.5,30.04,NE,40,0.0,1.0,79,0.00,,---,0.00,VWS V14.01,2013-04-24 12:01:00,
2013-04-24 08:06:00,52.1,45.5,30.03,NE,39,0.0,0.0,78,0.00,,---,0.00,VWS V14.01,2013-04-24 12:06:00,
2013-04-24 08:11:00,52.6,45.6,30.03,NE,40,1.0,1.0,77,0.00,,---,0.00,VWS V14.01,2013-04-24 12:11:00,
2013-04-24 08:16:00,53.0,45.3,30.03,NE,40,2.0,2.0,75,0.00,,---,0.00,VWS V14.01,2013-04-24 12:16:00,
2013-04-24 08:21:00,53.4,45.7,30.03,NE,44,1.0,1.0,75,0.00,,---,0.00,VWS V14.01,2013-04-24 12:21:00,
2013-04-24 08:26:00,53.5,45.4,30.02,NE,44,1.0,1.0,74,0.00,,---,0.00,VWS V14.01,2013-04-24 12:26:00,
2013-04-24 08:31:00,53.8,45.4,30.03,NE,43,0.0,1.0,73,0.00,,---,0.00,VWS V14.01,2013-04-24 12:31:00,
2013-04-24 08:36:00,54.1,45.7,30.03,NE,43,1.0,1.0,73,0.00,,---,0.00,VWS V14.01,2013-04-24 12:36:00,
2013-04-24 08:41:00,54.2,45.8,30.03,NE,47,1.0,2.0,73,0.00,,---,0.00,VWS V14.01,2013-04-24 12:41:00,
2013-04-24 08:46:00,54.5,45.3,30.03,NE,47,1.0,1.0,71,0.00,,---,0.00,VWS V14.01,2013-04-24 12:46:00,
2013-04-24 08:51:00,54.7,45.9,30.03,NE,49,1.0,1.0,72,0.00,,---,0.00,VWS V14.01,2013-04-24 12:51:00,
2013-04-24 08:56:00,54.9,45.7,30.03,NE,48,0.0,0.0,71,0.00,,---,0.00,VWS V14.01,2013-04-24 12:56:00,
2013-04-24 09:01:00,55.4,46.5,30.03,ENE,65,0.0,1.0,72,0.00,,---,0.00,VWS V14.01,2013-04-24 13:01:00,
2013-04-24 09:06:00,55.7,46.5,30.03,NE,44,0.0,1.0,71,0.00,,---,0.00,VWS V14.01,2013-04-24 13:06:00,
2013-04-24 09:11:00,56.3,46.7,30.03,WNW,302,2.0,5.0,70,0.00,,---,0.00,VWS V14.01,2013-04-24 13:11:00,
2013-04-24 09:16:00,57.2,46.4,30.02,WSW,252,0.0,5.0,67,0.00,,---,0.00,VWS V14.01,2013-04-24 13:16:00,
2013-04-24 09:21:00,57.9,46.2,30.03,WNW,284,3.0,3.0,65,0.00,,---,0.00,VWS V14.01,2013-04-24 13:21:00,
2013-04-24 09:26:00,58.4,46.3,30.02,WNW,283,3.0,4.0,64,0.00,,---,0.00,VWS V14.01,2013-04-24 13:26:00,
2013-04-24 09:31:00,59.0,46.0,30.02,NW,318,3.0,5.0,62,0.00,,---,0.00,VWS V14.01,2013-04-24 13:31:00,
2013-04-24 09:36:00,59.4,46.4,30.02,WNW,297,2.0,3.0,62,0.00,,---,0.00,VWS V14.01,2013-04-24 13:36:00,
2013-04-24 09:41:00,59.8,46.3,30.02,WNW,287,3.0,3.0,61,0.00,,---,0.00,VWS V14.01,2013-04-24 13:41:00,
2013-04-24 09:46:00,60.1,46.2,30.01,West,276,0.0,1.0,60,0.00,,---,0.00,VWS V14.01,2013-04-24 13:46:00,
2013-04-24 09:51:00,60.6,47.5,30.01,WNW,285,3.0,3.0,62,0.00,,---,0.00,VWS V14.01,2013-04-24 13:51:00,
2013-04-24 09:56:00,61.0,47.0,30.00,NNW,337,3.0,5.0,60,0.00,,---,0.00,VWS V14.01,2013-04-24 13:56:00,
2013-04-24 10:01:00,61.1,47.1,30.00,NNW,329,4.0,6.0,60,0.00,,---,0.00,VWS V14.01,2013-04-24 14:01:00,
2013-04-24 10:06:00,61.1,47.1,29.99,West,271,2.0,5.0,60,0.00,,---,0.00,VWS V14.01,2013-04-24 14:06:00,
2013-04-24 10:11:00,61.1,47.1,29.99,WNW,289,5.0,5.0,60,0.00,,---,0.00,VWS V14.01,2013-04-24 14:11:00,
2013-04-24 10:16:00,60.9,46.9,29.99,NNW,333,6.0,7.0,60,0.00,,---,0.00,VWS V14.01,2013-04-24 14:16:00,
2013-04-24 10:21:00,60.8,46.8,29.99,NW,319,8.0,8.0,60,0.00,,---,0.00,VWS V14.01,2013-04-24 14:21:00,
2013-04-24 10:26:00,60.7,46.8,29.99,WNW,295,3.0,7.0,60,0.00,,---,0.00,VWS V14.01,2013-04-24 14:26:00,
2013-04-24 10:31:00,60.9,47.8,30.00,NNW,332,6.0,6.0,62,0.00,,---,0.00,VWS V14.01,2013-04-24 14:31:00,
2013-04-24 10:36:00,61.3,47.8,30.01,WNW,295,6.0,8.0,61,0.00,,---,0.00,VWS V14.01,2013-04-24 14:36:00,
2013-04-24 10:41:00,61.3,47.8,30.01,NW,312,1.0,2.0,61,0.00,,---,0.00,VWS V14.01,2013-04-24 14:41:00,
2013-04-24 10:46:00,61.7,47.7,30.01,WNW,291,2.0,8.0,60,0.00,,---,0.00,VWS V14.01,2013-04-24 14:46:00,
2013-04-24 10:51:00,62.2,48.2,30.01,WNW,292,3.0,4.0,60,0.00,,---,0.00,VWS V14.01,2013-04-24 14:51:00,
2013-04-24 10:56:00,62.4,49.2,30.00,NW,309,4.0,6.0,62,0.00,,---,0.00,VWS V14.01,2013-04-24 14:56:00,
2013-04-24 11:01:00,62.8,48.7,30.00,WNW,298,5.0,5.0,60,0.00,,---,0.00,VWS V14.01,2013-04-24 15:01:00,
2013-04-24 11:09:00,62.8,48.3,29.99,West,264,3.0,7.0,59,0.00,,---,0.00,VWS V14.01,2013-04-24 15:09:00,
2013-04-24 11:14:00,63.5,48.5,29.99,West,275,4.0,5.0,58,0.00,,---,0.00,VWS V14.01,2013-04-24 15:14:00,
2013-04-24 11:19:00,63.9,48.8,29.99,East,86,2.0,4.0,58,0.00,,---,0.00,VWS V14.01,2013-04-24 15:19:00,
2013-04-24 11:24:00,63.8,48.8,30.00,West,276,3.0,4.0,58,0.00,,---,0.00,VWS V14.01,2013-04-24 15:24:00,
2013-04-24 11:29:00,64.1,49.5,30.00,West,280,4.0,5.0,59,0.00,,---,0.00,VWS V14.01,2013-04-24 15:29:00,
2013-04-24 11:34:00,64.4,49.3,30.00,WNW,285,2.0,6.0,58,0.00,,---,0.00,VWS V14.01,2013-04-24 15:34:00,
2013-04-24 11:39:00,64.7,49.1,30.01,WSW,248,1.0,2.0,57,0.00,,---,0.00,VWS V14.01,2013-04-24 15:39:00,
2013-04-24 11:44:00,64.9,49.3,30.02,SW,225,2.0,5.0,57,0.00,,---,0.00,VWS V14.01,2013-04-24 15:44:00,
2013-04-24 11:49:00,64.7,49.1,30.02,WSW,248,0.0,6.0,57,0.00,,---,0.00,VWS V14.01,2013-04-24 15:49:00,
2013-04-24 11:54:00,64.8,48.8,30.02,NW,322,0.0,3.0,56,0.00,,---,0.00,VWS V14.01,2013-04-24 15:54:00,
2013-04-24 11:59:00,65.1,49.5,30.02,NW,312,4.0,7.0,57,0.00,,---,0.00,VWS V14.01,2013-04-24 15:59:00,
2013-04-24 12:04:00,65.6,49.0,30.03,SW,231,3.0,3.0,55,0.00,,---,0.00,VWS V14.01,2013-04-24 16:04:00,
2013-04-24 12:09:00,65.4,48.8,30.02,SSE,152,0.0,1.0,55,0.00,,---,0.00,VWS V14.01,2013-04-24 16:09:00,
2013-04-24 12:14:00,65.5,50.3,30.02,West,281,2.0,3.0,58,0.00,,---,0.00,VWS V14.01,2013-04-24 16:14:00,
2013-04-24 12:19:00,66.0,50.3,30.02,SSW,200,1.0,2.0,57,0.00,,---,0.00,VWS V14.01,2013-04-24 16:19:00,
2013-04-24 12:24:00,66.3,49.2,30.02,WSW,257,3.0,4.0,54,0.00,,---,0.00,VWS V14.01,2013-04-24 16:24:00,
2013-04-24 12:29:00,66.4,49.8,30.02,WNW,297,0.0,0.0,55,0.00,,---,0.00,VWS V14.01,2013-04-24 16:29:00,
2013-04-24 12:34:00,66.8,50.1,30.02,ESE,123,1.0,2.0,55,0.00,,---,0.00,VWS V14.01,2013-04-24 16:34:00,
2013-04-24 12:39:00,66.7,50.0,30.01,SW,228,1.0,2.0,55,0.00,,---,0.00,VWS V14.01,2013-04-24 16:39:00,
2013-04-24 12:44:00,67.2,50.0,30.01,SE,124,4.0,4.0,54,0.00,,---,0.00,VWS V14.01,2013-04-24 16:44:00,
2013-04-24 12:49:00,67.3,49.6,30.01,SSE,162,2.0,5.0,53,0.00,,---,0.00,VWS V14.01,2013-04-24 16:49:00,
2013-04-24 12:54:00,67.1,49.4,30.01,SE,140,4.0,6.0,53,0.00,,---,0.00,VWS V14.01,2013-04-24 16:54:00,
2013-04-24 12:59:00,67.0,49.8,30.00,SE,127,0.0,2.0,54,0.00,,---,0.00,VWS V14.01,2013-04-24 16:59:00,
2013-04-24 13:04:00,67.1,49.4,30.00,ENE,64,4.0,4.0,53,0.00,,---,0.00,VWS V14.01,2013-04-24 17:04:00,
2013-04-24 13:09:00,67.2,49.5,30.00,West,281,1.0,2.0,53,0.00,,---,0.00,VWS V14.01,2013-04-24 17:09:00,
2013-04-24 13:14:00,67.2,49.5,30.00,South,184,5.0,5.0,53,0.00,,---,0.00,VWS V14.01,2013-04-24 17:14:00,
2013-04-24 13:19:00,67.5,49.3,29.99,South,190,3.0,3.0,52,0.00,,---,0.00,VWS V14.01,2013-04-24 17:19:00,
2013-04-24 13:24:00,67.6,49.4,29.99,SW,222,4.0,6.0,52,0.00,,---,0.00,VWS V14.01,2013-04-24 17:24:00,
2013-04-24 13:29:00,67.5,49.3,29.99,South,174,2.0,2.0,52,0.00,,---,0.00,VWS V14.01,2013-04-24 17:29:00,
2013-04-24 13:34:00,67.9,48.1,29.99,SSW,212,1.0,3.0,49,0.00,,---,0.00,VWS V14.01,2013-04-24 17:34:00,
2013-04-24 13:39:00,68.1,48.2,30.00,ESE,121,1.0,2.0,49,0.00,,---,0.00,VWS V14.01,2013-04-24 17:39:00,
2013-04-24 13:44:00,68.1,47.7,30.00,ESE,115,5.0,7.0,48,0.00,,---,0.00,VWS V14.01,2013-04-24 17:44:00,
2013-04-24 13:49:00,68.0,47.0,30.00,SE,134,8.0,9.0,47,0.00,,---,0.00,VWS V14.01,2013-04-24 17:49:00,
2013-04-24 13:54:00,67.6,46.7,30.00,NE,43,2.0,3.0,47,0.00,,---,0.00,VWS V14.01,2013-04-24 17:54:00,
2013-04-24 13:59:00,67.9,48.1,29.99,SW,215,1.0,2.0,49,0.00,,---,0.00,VWS V14.01,2013-04-24 17:59:00,
2013-04-24 14:04:00,68.1,47.7,29.99,SSE,165,2.0,4.0,48,0.00,,---,0.00,VWS V14.01,2013-04-24 18:04:00,
2013-04-24 14:09:00,68.2,47.2,29.99,SSE,160,1.0,1.0,47,0.00,,---,0.00,VWS V14.01,2013-04-24 18:09:00,
2013-04-24 14:14:00,67.9,46.4,29.99,East,92,3.0,3.0,46,0.00,,---,0.00,VWS V14.01,2013-04-24 18:14:00,
2013-04-24 14:19:00,67.9,47.5,29.99,SE,131,1.0,2.0,48,0.00,,---,0.00,VWS V14.01,2013-04-24 18:19:00,
2013-04-24 14:24:00,68.0,48.7,29.99,NW,306,2.0,3.0,50,0.00,,---,0.00,VWS V14.01,2013-04-24 18:24:00,
2013-04-24 14:29:00,67.8,49.0,29.98,WNW,297,2.0,5.0,51,0.00,,---,0.00,VWS V14.01,2013-04-24 18:29:00,
2013-04-24 14:34:00,67.8,49.5,29.99,WNW,295,2.0,3.0,52,0.00,,---,0.00,VWS V14.01,2013-04-24 18:34:00,
2013-04-24 14:39:00,67.8,49.5,29.98,West,278,3.0,4.0,52,0.00,,---,0.00,VWS V14.01,2013-04-24 18:39:00,
2013-04-24 14:44:00,67.8,50.1,29.97,WNW,302,4.0,6.0,53,0.00,,---,0.00,VWS V14.01,2013-04-24 18:44:00,
2013-04-24 14:49:00,67.6,49.9,29.97,WNW,302,3.0,5.0,53,0.00,,---,0.00,VWS V14.01,2013-04-24 18:49:00,
2013-04-24 14:54:00,67.7,49.5,29.97,WNW,287,4.0,8.0,52,0.00,,---,0.00,VWS V14.01,2013-04-24 18:54:00,
2013-04-24 14:59:00,67.4,50.7,29.96,WNW,292,6.0,7.0,55,0.00,,---,0.00,VWS V14.01,2013-04-24 18:59:00,
2013-04-24 15:04:00,67.5,50.3,29.96,WNW,285,3.0,5.0,54,0.00,,---,0.00,VWS V14.01,2013-04-24 19:04:00,
2013-04-24 15:09:00,67.4,50.2,29.97,WNW,288,5.0,6.0,54,0.00,,---,0.00,VWS V14.01,2013-04-24 19:09:00,
2013-04-24 15:14:00,67.1,50.9,29.97,West,278,5.0,8.0,56,0.00,,---,0.00,VWS V14.01,2013-04-24 19:14:00,
2013-04-24 15:19:00,67.0,51.3,29.97,West,271,3.0,4.0,57,0.00,,---,0.00,VWS V14.01,2013-04-24 19:19:00,
2013-04-24 15:24:00,67.0,51.3,29.96,NW,305,4.0,4.0,57,0.00,,---,0.00,VWS V14.01,2013-04-24 19:24:00,
2013-04-24 15:29:00,66.8,51.6,29.96,WNW,284,2.0,4.0,58,0.00,,---,0.00,VWS V14.01,2013-04-24 19:29:00,
2013-04-24 15:34:00,66.9,51.7,29.96,WNW,288,3.0,5.0,58,0.00,,---,0.00,VWS V14.01,2013-04-24 19:34:00,
2013-04-24 15:39:00,66.9,51.7,29.96,WNW,288,1.0,6.0,58,0.00,,---,0.00,VWS V14.01,2013-04-24 19:39:00,
2013-04-24 15:44:00,67.0,51.3,29.96,WNW,300,2.0,3.0,57,0.00,,---,0.00,VWS V14.01,2013-04-24 19:44:00,
2013-04-24 15:49:00,67.3,51.6,29.95,WNW,302,3.0,4.0,57,0.00,,---,0.00,VWS V14.01,2013-04-24 19:49:00,
2013-04-24 15:54:00,67.3,51.6,29.95,WNW,283,4.0,4.0,57,0.00,,---,0.00,VWS V14.01,2013-04-24 19:54:00,
2013-04-24 15:59:00,67.3,51.6,29.95,WNW,300,3.0,3.0,57,0.00,,---,0.00,VWS V14.01,2013-04-24 19:59:00,
2013-04-24 16:04:00,67.4,51.7,29.95,WNW,286,1.0,2.0,57,0.00,,---,0.00,VWS V14.01,2013-04-24 20:04:00,
2013-04-24 16:09:00,67.1,51.4,29.95,WNW,285,1.0,2.0,57,0.00,,---,0.00,VWS V14.01,2013-04-24 20:09:00,
2013-04-24 16:14:00,66.9,51.7,29.95,NW,312,2.0,3.0,58,0.00,,---,0.00,VWS V14.01,2013-04-24 20:14:00,
2013-04-24 16:19:00,66.8,51.6,29.95,WSW,248,0.0,1.0,58,0.00,,---,0.00,VWS V14.01,2013-04-24 20:19:00,
2013-04-24 16:24:00,66.7,51.9,29.95,WNW,287,3.0,3.0,59,0.00,,---,0.00,VWS V14.01,2013-04-24 20:24:00,
2013-04-24 16:29:00,66.6,51.8,29.94,NE,46,1.0,1.0,59,0.00,,---,0.00,VWS V14.01,2013-04-24 20:29:00,
2013-04-24 16:34:00,66.5,51.8,29.94,ESE,117,1.0,1.0,59,0.00,,---,0.00,VWS V14.01,2013-04-24 20:34:00,
2013-04-24 16:39:00,66.4,51.7,29.95,ESE,117,0.0,1.0,59,0.00,,---,0.00,VWS V14.01,2013-04-24 20:39:00,
2013-04-24 16:44:00,66.4,52.6,29.95,ESE,117,1.0,1.0,61,0.00,,---,0.00,VWS V14.01,2013-04-24 20:44:00,
2013-04-24 16:49:00,66.0,52.6,29.96,ESE,110,5.0,5.0,62,0.00,,---,0.00,VWS V14.01,2013-04-24 20:49:00,
2013-04-24 16:54:00,65.0,53.8,29.97,WSW,250,3.0,3.0,67,0.00,,---,0.00,VWS V14.01,2013-04-24 20:54:00,
2013-04-24 16:59:00,63.6,54.4,29.98,SSE,147,4.0,7.0,72,0.02,,---,0.02,VWS V14.01,2013-04-24 20:59:00,
2013-04-24 17:04:00,62.0,55.4,29.98,East,92,1.0,4.0,79,0.04,,---,0.04,VWS V14.01,2013-04-24 21:04:00,
2013-04-24 17:09:00,60.6,55.1,29.99,ENE,67,4.0,4.0,82,0.05,,---,0.05,VWS V14.01,2013-04-24 21:09:00,
2013-04-24 17:14:00,59.9,55.4,29.98,East,86,2.0,3.0,85,0.05,,---,0.05,VWS V14.01,2013-04-24 21:14:00,
2013-04-24 17:19:00,59.5,55.6,29.98,East,86,0.0,0.0,87,0.05,,---,0.05,VWS V14.01,2013-04-24 21:19:00,
2013-04-24 17:24:00,59.3,56.1,29.98,East,86,0.0,0.0,89,0.06,,---,0.06,VWS V14.01,2013-04-24 21:24:00,
2013-04-24 17:29:00,59.3,56.7,29.98,East,84,0.0,0.0,91,0.06,,---,0.06,VWS V14.01,2013-04-24 21:29:00,
2013-04-24 17:34:00,59.2,56.6,29.98,East,83,0.0,0.0,91,0.07,,---,0.07,VWS V14.01,2013-04-24 21:34:00,
2013-04-24 17:39:00,59.0,56.7,29.98,East,84,0.0,0.0,92,0.08,,---,0.08,VWS V14.01,2013-04-24 21:39:00,
2013-04-24 17:44:00,59.0,56.7,29.97,East,84,0.0,0.0,92,0.09,,---,0.09,VWS V14.01,2013-04-24 21:44:00,
2013-04-24 17:49:00,58.9,56.6,29.96,East,84,0.0,0.0,92,0.09,,---,0.09,VWS V14.01,2013-04-24 21:49:00,
2013-04-24 17:54:00,58.8,56.5,29.96,NNE,16,1.0,1.0,92,0.09,,---,0.09,VWS V14.01,2013-04-24 21:54:00,
2013-04-24 17:59:00,58.7,56.7,29.97,WNW,288,0.0,1.0,93,0.08,,---,0.09,VWS V14.01,2013-04-24 21:59:00,
2013-04-24 18:04:00,58.7,56.7,29.97,WNW,288,0.0,0.0,93,0.06,,---,0.09,VWS V14.01,2013-04-24 22:04:00,
2013-04-24 18:09:00,58.6,56.6,29.97,WNW,288,0.0,0.0,93,0.04,,---,0.09,VWS V14.01,2013-04-24 22:09:00,
2013-04-24 18:14:00,58.5,56.5,29.97,WNW,288,0.0,0.0,93,0.04,,---,0.09,VWS V14.01,2013-04-24 22:14:00,
2013-04-24 18:19:00,58.6,56.9,29.97,WNW,288,0.0,1.0,94,0.04,,---,0.09,VWS V14.01,2013-04-24 22:19:00,
2013-04-24 18:24:00,58.6,56.6,29.97,East,98,3.0,4.0,93,0.03,,---,0.09,VWS V14.01,2013-04-24 22:24:00,
2013-04-24 18:29:00,59.0,55.1,29.98,East,81,1.0,3.0,87,0.03,,---,0.09,VWS V14.01,2013-04-24 22:29:00,
2013-04-24 18:34:00,58.8,55.6,29.98,ENE,71,1.0,2.0,89,0.02,,---,0.09,VWS V14.01,2013-04-24 22:34:00,
2013-04-24 18:39:00,58.3,55.1,29.98,NE,40,2.0,2.0,89,0.01,,---,0.09,VWS V14.01,2013-04-24 22:39:00,
2013-04-24 18:44:00,58.3,54.5,29.98,NE,39,2.0,3.0,87,0.00,,---,0.09,VWS V14.01,2013-04-24 22:44:00,
2013-04-24 18:49:00,58.7,53.9,29.99,NE,41,2.0,2.0,84,0.00,,---,0.09,VWS V14.01,2013-04-24 22:49:00,
2013-04-24 18:54:00,58.9,54.1,29.99,NNE,16,1.0,1.0,84,0.00,,---,0.09,VWS V14.01,2013-04-24 22:54:00,
2013-04-24 18:59:00,58.9,54.4,29.99,NNE,29,3.0,3.0,85,0.00,,---,0.09,VWS V14.01,2013-04-24 22:59:00,
2013-04-24 19:04:00,58.8,54.6,29.99,ENE,75,1.0,1.0,86,0.00,,---,0.09,VWS V14.01,2013-04-24 23:04:00,
2013-04-24 19:09:00,58.8,55.3,29.99,ENE,75,0.0,1.0,88,0.00,,---,0.09,VWS V14.01,2013-04-24 23:09:00,
2013-04-24 19:14:00,58.7,55.5,29.99,ENE,75,0.0,1.0,89,0.00,,---,0.09,VWS V14.01,2013-04-24 23:14:00,
2013-04-24 19:19:00,58.4,55.5,29.98,ENE,75,0.0,0.0,90,0.00,,---,0.09,VWS V14.01,2013-04-24 23:19:00,
2013-04-24 19:24:00,58.4,55.8,29.97,ENE,75,0.0,0.0,91,0.00,,---,0.09,VWS V14.01,2013-04-24 23:24:00,
2013-04-24 19:29:00,58.3,56.0,29.97,ENE,75,0.0,0.0,92,0.00,,---,0.09,VWS V14.01,2013-04-24 23:29:00,
2013-04-24 19:34:00,58.2,55.9,29.97,ENE,75,0.0,0.0,92,0.00,,---,0.09,VWS V14.01,2013-04-24 23:34:00,
2013-04-24 19:39:00,58.0,55.4,29.97,ENE,75,0.0,0.0,91,0.00,,---,0.09,VWS V14.01,2013-04-24 23:39:00,
2013-04-24 19:44:00,57.6,55.0,29.97,ENE,75,0.0,1.0,91,0.00,,---,0.09,VWS V14.01,2013-04-24 23:44:00,
2013-04-24 19:49:00,57.3,55.0,29.98,ENE,75,0.0,0.0,92,0.00,,---,0.09,VWS V14.01,2013-04-24 23:49:00,
2013-04-24 19:54:00,57.1,54.8,29.97,ENE,75,0.0,1.0,92,0.00,,---,0.09,VWS V14.01,2013-04-24 23:54:00,
2013-04-24 19:59:00,56.9,54.6,29.97,ENE,75,0.0,0.0,92,0.00,,---,0.09,VWS V14.01,2013-04-24 23:59:00,
2013-04-24 20:04:00,56.7,54.4,29.97,ENE,75,0.0,1.0,92,0.00,,---,0.09,VWS V14.01,2013-04-25 00:04:00,
2013-04-24 20:09:00,56.6,54.3,29.98,ENE,75,0.0,0.0,92,0.00,,---,0.09,VWS V14.01,2013-04-25 00:09:00,
2013-04-24 20:14:00,56.5,54.5,29.98,ENE,75,1.0,1.0,93,0.00,,---,0.09,VWS V14.01,2013-04-25 00:14:00,
2013-04-24 20:19:00,56.5,54.5,29.97,ENE,75,0.0,0.0,93,0.00,,---,0.09,VWS V14.01,2013-04-25 00:19:00,
2013-04-24 20:24:00,56.4,54.4,29.98,ENE,75,0.0,1.0,93,0.00,,---,0.09,VWS V14.01,2013-04-25 00:24:00,
2013-04-24 20:29:00,56.4,54.4,29.98,ENE,75,0.0,1.0,93,0.00,,---,0.09,VWS V14.01,2013-04-25 00:29:00,
2013-04-24 20:34:00,56.4,54.4,29.98,ENE,75,0.0,1.0,93,0.00,,---,0.09,VWS V14.01,2013-04-25 00:34:00,
2013-04-24 20:39:00,56.7,54.7,29.98,ENE,75,0.0,0.0,93,0.00,,---,0.09,VWS V14.01,2013-04-25 00:39:00,
2013-04-24 20:44:00,56.8,54.8,29.98,ENE,75,1.0,1.0,93,0.00,,---,0.09,VWS V14.01,2013-04-25 00:44:00,
2013-04-24 20:49:00,56.9,54.6,29.99,ENE,75,1.0,1.0,92,0.00,,---,0.09,VWS V14.01,2013-04-25 00:49:00,
2013-04-24 20:54:00,57.2,54.3,29.99,ENE,75,0.0,0.0,90,0.00,,---,0.09,VWS V14.01,2013-04-25 00:54:00,
2013-04-24 20:59:00,57.5,54.3,29.99,NE,46,2.0,3.0,89,0.00,,---,0.09,VWS V14.01,2013-04-25 00:59:00,
2013-04-24 21:04:00,58.0,54.5,30.00,NE,46,0.0,1.0,88,0.00,,---,0.09,VWS V14.01,2013-04-25 01:04:00,
2013-04-24 21:09:00,58.2,54.4,30.00,SSE,149,2.0,4.0,87,0.00,,---,0.09,VWS V14.01,2013-04-25 01:09:00,
2013-04-24 21:14:00,58.5,54.3,30.00,WNW,302,2.0,5.0,86,0.00,,---,0.09,VWS V14.01,2013-04-25 01:14:00,
2013-04-24 21:19:00,57.6,53.8,30.02,West,274,2.0,12.0,87,0.00,,---,0.09,VWS V14.01,2013-04-25 01:19:00,
2013-04-24 21:24:00,56.6,53.4,30.02,NW,322,2.0,5.0,89,0.00,,---,0.09,VWS V14.01,2013-04-25 01:24:00,
2013-04-24 21:29:00,55.5,52.6,30.02,ESE,114,2.0,6.0,90,0.00,,---,0.09,VWS V14.01,2013-04-25 01:29:00,
2013-04-24 21:34:00,54.5,51.9,30.02,South,187,1.0,4.0,91,0.00,,---,0.09,VWS V14.01,2013-04-25 01:34:00,
2013-04-24 21:39:00,53.8,51.2,30.03,East,81,6.0,6.0,91,0.00,,---,0.09,VWS V14.01,2013-04-25 01:39:00,
2013-04-24 21:44:00,53.2,50.9,30.03,South,183,3.0,12.0,92,0.01,,---,0.10,VWS V14.01,2013-04-25 01:44:00,
2013-04-24 21:49:00,52.8,50.5,30.03,SE,146,3.0,12.0,92,0.01,,---,0.10,VWS V14.01,2013-04-25 01:49:00,
2013-04-24 21:54:00,52.5,50.2,30.04,ENE,58,4.0,4.0,92,0.01,,---,0.10,VWS V14.01,2013-04-25 01:54:00,
2013-04-24 21:59:00,52.4,50.2,30.04,East,85,2.0,3.0,92,0.01,,---,0.10,VWS V14.01,2013-04-25 01:59:00,
2013-04-24 22:04:00,52.3,49.8,30.04,SW,232,3.0,7.0,91,0.01,,---,0.10,VWS V14.01,2013-04-25 02:04:00,
2013-04-24 22:09:00,52.0,49.5,30.04,ENE,67,4.0,4.0,91,0.01,,---,0.10,VWS V14.01,2013-04-25 02:09:00,
2013-04-24 22:14:00,51.9,49.4,30.04,East,91,3.0,7.0,91,0.01,,---,0.10,VWS V14.01,2013-04-25 02:14:00,
2013-04-24 22:19:00,51.8,49.3,30.04,South,170,4.0,5.0,91,0.01,,---,0.10,VWS V14.01,2013-04-25 02:19:00,
2013-04-24 22:24:00,51.8,49.3,30.06,SSE,166,4.0,8.0,91,0.01,,---,0.10,VWS V14.01,2013-04-25 02:24:00,
2013-04-24 22:29:00,51.7,49.5,30.05,SE,133,0.0,2.0,92,0.01,,---,0.10,VWS V14.01,2013-04-25 02:29:00,
2013-04-24 22:34:00,51.6,49.1,30.05,WSW,238,1.0,4.0,91,0.01,,---,0.10,VWS V14.01,2013-04-25 02:34:00,
2013-04-24 22:39:00,51.3,48.5,30.06,ESE,118,3.0,7.0,90,0.01,,---,0.10,VWS V14.01,2013-04-25 02:39:00,
2013-04-24 22:44:00,50.7,47.6,30.06,SSW,195,8.0,8.0,89,0.00,,---,0.10,VWS V14.01,2013-04-25 02:44:00,
2013-04-24 22:49:00,50.3,47.2,30.06,SE,134,1.0,3.0,89,0.00,,---,0.10,VWS V14.01,2013-04-25 02:49:00,
2013-04-24 22:54:00,50.0,46.9,30.06,South,190,7.0,7.0,89,0.00,,---,0.10,VWS V14.01,2013-04-25 02:54:00,
2013-04-24 22:59:00,49.8,46.7,30.07,SE,129,3.0,3.0,89,0.00,,---,0.10,VWS V14.01,2013-04-25 02:59:00,
2013-04-24 23:04:00,49.7,46.9,30.06,East,94,3.0,4.0,90,0.00,,---,0.10,VWS V14.01,2013-04-25 03:04:00,
2013-04-24 23:09:00,49.4,46.3,30.07,WNW,292,1.0,7.0,89,0.00,,---,0.10,VWS V14.01,2013-04-25 03:09:00,
2013-04-24 23:14:00,49.3,46.2,30.07,SSE,162,2.0,3.0,89,0.00,,---,0.10,VWS V14.01,2013-04-25 03:14:00,
2013-04-24 23:19:00,49.1,46.3,30.07,NE,49,2.0,2.0,90,0.00,,---,0.10,VWS V14.01,2013-04-25 03:19:00,
2013-04-24 23:24:00,48.9,45.8,30.07,WNW,299,0.0,5.0,89,0.00,,---,0.10,VWS V14.01,2013-04-25 03:24:00,
2013-04-24 23:29:00,48.7,45.6,30.08,ENE,58,4.0,4.0,89,0.00,,---,0.10,VWS V14.01,2013-04-25 03:29:00,
2013-04-24 23:34:00,48.4,45.0,30.08,NE,47,1.0,4.0,88,0.00,,---,0.10,VWS V14.01,2013-04-25 03:34:00,
2013-04-24 23:39:00,48.3,44.9,30.08,SSE,158,2.0,2.0,88,0.00,,---,0.10,VWS V14.01,2013-04-25 03:39:00,
2013-04-24 23:44:00,48.1,44.7,30.09,ENE,72,0.0,3.0,88,0.00,,---,0.10,VWS V14.01,2013-04-25 03:44:00,
2013-04-24 23:49:00,47.8,44.4,30.08,SW,228,2.0,6.0,88,0.00,,---,0.10,VWS V14.01,2013-04-25 03:49:00,
2013-04-24 23:54:00,47.6,43.9,30.09,NNW,328,4.0,7.0,87,0.00,,---,0.10,VWS V14.01,2013-04-25 03:54:00,
2013-04-24 23:59:00,47.4,44.0,30.09,SE,139,3.0,6.0,88,0.00,,---,0.10,VWS V14.01,2013-04-25 03:59:00,